Thermopolis, WY

6:40 PM MDT on March 28, 2017 (GMT -0600)
Thermopolis

Weather History for KTBX - March, 2013

Change the Weather History Date:

Thursday, March 21, 2013

  Actual Average (KRIW) Record (KRIW)
Temperature  
Mean Temperature 31 °F -  
Max Temperature 39 °F 49 °F 69 °F (2009)
Min Temperature 23 °F 19 °F 5 °F (2002)
Degree Days  
Heating Degree Days 34    
Moisture  
Dew Point 24 °F    
Average Humidity 87    
Maximum Humidity 100    
Minimum Humidity 49    
Precipitation  
Precipitation 0.00 in - - ()
Sea Level Pressure  
Sea Level Pressure 29.72 in    
Wind  
Wind Speed 15 mph (SSW)    
Max Wind Speed 40 mph    
Max Gust Speed 48 mph    
Visibility 9 miles    
Events Snow    
Averages and records for this station are not official NWS values.
T = Trace of Precipitation, MM = Missing Value Source: NWS Daily Summary

Daily Weather History Graph

Daily Weather History Graph

Search for Another Location

Airport or City:

Trip Planner

Search our weather history database for the weather conditions in past years. The results will help you decide how hot, cold, wet, or windy it might be!

Date:

Astronomy

Mar. 21, 2013 Rise Set
Actual Time 7:13 AM MDT 7:26 PM MDT
Civil Twilight 6:45 AM MDT 7:55 PM MDT
Nautical Twilight 6:11 AM MDT 8:29 PM MDT
Astronomical Twilight 5:37 AM MDT 9:03 PM MDT
Moon 1:51 PM MDT (3/21) 3:46 AM MDT (3/21)
Length of Visible Light 13h 10m
Length of Day
12h 13m
Waxing Gibbous, 69% of the Moon is Illuminated
Mar 21
Waxing Gibbous
Mar 27
Full
Apr 2
Last Quarter
Apr 10
New
Apr 18
First Quarter

Hourly Weather History & Observations

Time (MDT) Temp. Windchill Dew Point Humidity Pressure Visibility Wind Dir Wind Speed Gust Speed Precip Events Conditions
12:15 AM 37.4 °F 28.2 °F 23.0 °F 56% 29.76 in 10.0 mi SW 16.1 mph 23.0 mph N/A   Mostly Cloudy
12:35 AM 39.2 °F 31.2 °F 21.2 °F 49% 29.74 in 10.0 mi SSW 13.8 mph 20.7 mph N/A   Overcast
12:55 AM 33.8 °F 27.0 °F 23.0 °F 65% 29.74 in 10.0 mi SE 8.1 mph - N/A   Mostly Cloudy
1:15 AM 35.6 °F 29.2 °F 23.0 °F 60% 29.73 in 10.0 mi South 8.1 mph - N/A   Scattered Clouds
1:35 AM 33.8 °F 25.8 °F 23.0 °F 65% 29.71 in 10.0 mi ESE 10.4 mph - N/A   Scattered Clouds
1:55 AM 32.0 °F 24.8 °F 24.8 °F 75% 29.70 in 10.0 mi SE 8.1 mph - N/A   Scattered Clouds
2:15 AM 32.0 °F 23.6 °F 24.8 °F 75% 29.69 in 10.0 mi SE 10.4 mph - N/A   Clear
2:35 AM 32.0 °F 24.2 °F 24.8 °F 75% 29.70 in 10.0 mi SE 9.2 mph - N/A   Clear
2:55 AM 33.8 °F 27.0 °F 24.8 °F 70% 29.69 in 10.0 mi SSE 8.1 mph - N/A   Clear
3:15 AM 33.8 °F 24.8 °F 24.8 °F 70% 29.67 in 10.0 mi SE 12.7 mph - N/A   Clear
3:35 AM 32.0 °F 23.0 °F 28.4 °F 87% 29.66 in 10.0 mi ESE 11.5 mph - N/A   Clear
3:55 AM 32.0 °F 23.0 °F 28.4 °F 87% 29.66 in 10.0 mi ESE 11.5 mph - N/A   Scattered Clouds
4:15 AM 32.0 °F 20.8 °F 28.4 °F 87% 29.65 in 10.0 mi SE 17.3 mph - N/A   Mostly Cloudy
4:35 AM 32.0 °F 22.5 °F 30.2 °F 93% 29.65 in 10.0 mi ESE 12.7 mph - N/A   Scattered Clouds
5:15 AM 32.0 °F 22.1 °F 30.2 °F 93% 29.63 in 10.0 mi SE 13.8 mph - N/A   Mostly Cloudy
5:35 AM 32.0 °F 28.7 °F 30.2 °F 93% 29.64 in 10.0 mi SSE 3.5 mph - N/A   Scattered Clouds
5:55 AM 32.0 °F 23.6 °F 28.4 °F 87% 29.63 in 10.0 mi SSE 10.4 mph 16.1 mph N/A   Mostly Cloudy
6:15 AM 33.8 °F 25.8 °F 26.6 °F 75% 29.63 in 10.0 mi South 10.4 mph 16.1 mph N/A   Overcast
6:55 AM 32.0 °F 23.0 °F 30.2 °F 93% 29.62 in 10.0 mi South 11.5 mph - N/A   Overcast
7:15 AM 33.8 °F 24.8 °F 28.4 °F 81% 29.61 in 10.0 mi South 12.7 mph - N/A   Overcast
7:35 AM 33.8 °F 23.5 °F 28.4 °F 81% 29.61 in 10.0 mi South 16.1 mph 20.7 mph N/A   Overcast
7:55 AM 32.0 °F 22.5 °F 28.4 °F 87% 29.62 in 10.0 mi South 12.7 mph - N/A   Overcast
8:15 AM 32.0 °F 20.1 °F 28.4 °F 87% 29.63 in 5.0 mi South 19.6 mph 24.2 mph N/A Snow Light Snow
8:35 AM 32.0 °F 21.6 °F 30.2 °F 93% 29.64 in 0.2 mi SW 15.0 mph 28.8 mph N/A Snow Snow
8:55 AM 28.4 °F 13.5 °F 26.6 °F 93% 29.65 in 0.2 mi NW 26.5 mph - N/A Snow Heavy Snow
9:15 AM 28.4 °F 13.8 °F 26.6 °F 93% 29.65 in - NW 25.3 mph - N/A   Overcast
9:35 AM 28.4 °F 13.5 °F 26.6 °F 93% 29.64 in - NW 26.5 mph - N/A   Overcast
9:55 AM 28.4 °F 14.1 °F 26.6 °F 93% 29.64 in - NNW 24.2 mph 29.9 mph N/A   Overcast
10:15 AM 28.4 °F 14.1 °F 26.6 °F 93% 29.65 in - NNW 24.2 mph - N/A   Overcast
10:35 AM 28.4 °F - 26.6 °F 93% 29.65 in - North - - N/A   Overcast
10:55 AM 28.4 °F - 26.6 °F 93% 29.64 in - North - - N/A   Overcast
11:15 AM 28.4 °F - 26.6 °F 93% 29.65 in - North - - N/A   Overcast
11:35 AM 26.6 °F - 24.8 °F 93% 29.66 in - North - - N/A   Overcast
11:55 AM 24.8 °F - 23.0 °F 93% 29.67 in - North - - N/A   Overcast
12:15 PM 24.8 °F - 23.0 °F 93% 29.67 in - North - - N/A   Overcast
12:35 PM 24.8 °F - 23.0 °F 93% 29.68 in - North - - N/A   Overcast
12:55 PM 24.8 °F 7.1 °F 23.0 °F 93% 29.68 in - NW 33.4 mph - N/A   Overcast
1:15 PM 23.0 °F 3.2 °F 23.0 °F 100% 29.68 in - NW 40.3 mph 48.3 mph N/A   Overcast
1:35 PM 23.0 °F 3.9 °F 21.2 °F 93% 29.70 in - NW 36.8 mph 41.4 mph N/A   Overcast
1:55 PM 23.0 °F 3.9 °F 21.2 °F 93% 29.70 in - NW 36.8 mph - N/A   Overcast
2:15 PM 23.0 °F 4.4 °F 21.2 °F 93% 29.71 in - NW 34.5 mph - N/A   Overcast
2:35 PM 23.0 °F 4.4 °F 23.0 °F 100% 29.72 in - WNW 34.5 mph - N/A   Overcast
3:15 PM 23.0 °F 6.9 °F 23.0 °F 100% 29.73 in - NW 24.2 mph - N/A   Overcast
3:35 PM 23.0 °F 6.9 °F 23.0 °F 100% 29.74 in - NW 24.2 mph - N/A   Overcast
3:55 PM 24.8 °F 9.6 °F 23.0 °F 93% 29.75 in - NW 23.0 mph - N/A   Overcast
4:15 PM 24.8 °F 10.3 °F 23.0 °F 93% 29.76 in - NW 20.7 mph - N/A   Overcast
4:35 PM 24.8 °F 11.5 °F 23.0 °F 93% 29.77 in - NW 17.3 mph - N/A   Overcast
5:15 PM 24.8 °F 11.9 °F 23.0 °F 93% 29.78 in - NW 16.1 mph - N/A   Overcast
5:35 PM 23.0 °F 10.1 °F 23.0 °F 100% 29.78 in - NW 15.0 mph - N/A   Overcast
5:55 PM 23.0 °F 10.1 °F 23.0 °F 100% 29.79 in - NW 15.0 mph - N/A   Overcast
6:15 PM 23.0 °F 11.1 °F 23.0 °F 100% 29.80 in - NW 12.7 mph - N/A   Unknown
6:35 PM 23.0 °F 11.1 °F 21.2 °F 93% 29.80 in - NW 12.7 mph - N/A   Unknown
6:55 PM 23.0 °F 11.1 °F 21.2 °F 93% 29.81 in - NNW 12.7 mph - N/A   Unknown
7:15 PM 23.0 °F 11.1 °F 21.2 °F 93% 29.82 in - NW 12.7 mph - N/A   Unknown
7:35 PM 23.0 °F 12.4 °F 21.2 °F 93% 29.83 in - NNW 10.4 mph - N/A   Mostly Cloudy
8:15 PM 23.0 °F 14.7 °F 23.0 °F 100% 29.84 in - South 6.9 mph - N/A   Unknown
8:35 PM 24.8 °F 14.6 °F 19.4 °F 80% 29.84 in - South 10.4 mph 16.1 mph N/A   Overcast
8:55 PM 24.8 °F 12.9 °F 21.2 °F 86% 29.84 in - SSE 13.8 mph - N/A   Overcast
9:15 PM 23.0 °F 15.8 °F 21.2 °F 93% 29.84 in - SSE 5.8 mph - N/A   Unknown
9:35 PM 24.8 °F 16.9 °F 21.2 °F 86% 29.85 in - SE 6.9 mph - N/A   Unknown
9:55 PM 24.8 °F 17.9 °F 19.4 °F 80% 29.85 in - SSE 5.8 mph - N/A   Overcast
10:15 PM 24.8 °F 14.6 °F 17.6 °F 74% 29.85 in - SSE 10.4 mph - N/A   Overcast
10:35 PM 23.0 °F 15.8 °F 19.4 °F 86% 29.85 in - SSE 5.8 mph - N/A   Overcast
10:55 PM 23.0 °F 18.4 °F 19.4 °F 86% 29.85 in - NE 3.5 mph - N/A   Overcast
11:15 PM 23.0 °F 15.8 °F 17.6 °F 80% 29.85 in - NE 5.8 mph - N/A   Overcast
11:35 PM 23.0 °F 14.7 °F 19.4 °F 86% 29.85 in - NE 6.9 mph - N/A   Unknown